| time (UTC) | temp C | wind direction | speed KPH | gust KPH | rain 1hr cm | rain 24hr cm | rain mn cm | humidity % | barometer mb |
| 20260506021327 | 16 | 0 | 4.8 | 8.0 | 0.00 | 0.03 | 0.03 | 67 | 1016.1 |
| 20260506020827 | 16 | 0 | 3.2 | 8.0 | 0.00 | 0.03 | 0.03 | 66 | 1016.0 |
| 20260506020606 | 16 | 0 | 1.6 | 8.0 | 0.00 | 0.03 | 0.03 | 66 | 1016.0 |
| 20260506015826 | 16 | 0 | 3.2 | 4.8 | 0.00 | 0.03 | 0.03 | 66 | 1016.0 |
| 20260506015327 | 16 | 0 | 1.6 | 9.7 | 0.00 | 0.03 | 0.03 | 66 | 1016.0 |
| 20260506015132 | 16 | 0 | 3.2 | 8.0 | 0.00 | 0.03 | 0.03 | 66 | 1016.0 |
| 20260506015127 | 16 | 0 | 3.2 | 9.7 | 0.00 | 0.03 | 0.03 | 66 | 1015.9 |
| 20260506013824 | 16 | 0 | 4.8 | 9.7 | 0.00 | 0.03 | 0.03 | 65 | 1016.0 |
| 20260506013324 | 16 | 0 | 3.2 | 9.7 | 0.00 | 0.03 | 0.03 | 65 | 1016.0 |
| 20260506012824 | 16 | 0 | 4.8 | 9.7 | 0.00 | 0.03 | 0.03 | 65 | 1016.0 |
| 20260506012325 | 16 | 0 | 3.2 | 9.7 | 0.00 | 0.03 | 0.03 | 64 | 1016.0 |
| 20260506011824 | 17 | 0 | 3.2 | 8.0 | 0.00 | 0.03 | 0.03 | 65 | 1016.0 |
| 20260506011324 | 17 | 0 | 3.2 | 8.0 | 0.00 | 0.03 | 0.03 | 65 | 1016.0 |
| 20260506010824 | 17 | 0 | 4.8 | 9.7 | 0.00 | 0.03 | 0.03 | 65 | 1015.9 |
| 20260506010324 | 16 | 0 | 3.2 | 9.7 | 0.00 | 0.03 | 0.03 | 66 | 1015.9 |
| 20260506005825 | 16 | 0 | 4.8 | 8.0 | 0.00 | 0.03 | 0.03 | 66 | 1015.9 |
| 20260506005603 | 16 | 0 | 3.2 | 6.4 | 0.00 | 0.03 | 0.03 | 66 | 1015.9 |
| 20260506004824 | 16 | 0 | 3.2 | 11.3 | 0.00 | 0.03 | 0.03 | 66 | 1015.9 |
| 20260506004324 | 16 | 0 | 4.8 | 14.5 | 0.00 | 0.03 | 0.03 | 66 | 1016.0 |
| 20260506003826 | 16 | 0 | 1.6 | 16.1 | 0.00 | 0.03 | 0.03 | 67 | 1015.9 |
| 20260506003325 | 16 | 0 | 8.0 | 16.1 | 0.00 | 0.03 | 0.03 | 66 | 1015.8 |
| 20260506002824 | 16 | 0 | 4.8 | 17.7 | 0.00 | 0.03 | 0.03 | 66 | 1015.8 |
| 20260506002323 | 16 | 0 | 6.4 | 17.7 | 0.00 | 0.03 | 0.03 | 67 | 1015.7 |
| 20260506001824 | 16 | 0 | 6.4 | 17.7 | 0.00 | 0.03 | 0.03 | 67 | 1015.7 |
| 20260506001323 | 16 | 0 | 9.7 | 22.5 | 0.00 | 0.03 | 0.03 | 66 | 1015.7 |
| 20260506000824 | 16 | 0 | 6.4 | 22.5 | 0.00 | 0.03 | 0.03 | 67 | 1015.7 |
| 20260506000323 | 17 | 0 | 6.4 | 14.5 | 0.00 | 0.03 | 0.03 | 66 | 1015.6 |
| 20260505235823 | 17 | 0 | 4.8 | 16.1 | 0.00 | 0.03 | 0.03 | 66 | 1015.6 |
| 20260505235323 | 17 | 0 | 6.4 | 20.9 | 0.00 | 0.03 | 0.03 | 66 | 1015.6 |
| 20260505234823 | 17 | 0 | 6.4 | 20.9 | 0.00 | 0.03 | 0.03 | 66 | 1015.6 |
| 20260505234324 | 17 | 0 | 6.4 | 17.7 | 0.00 | 0.03 | 0.03 | 66 | 1015.6 |
| 20260505233823 | 17 | 0 | 6.4 | 17.7 | 0.00 | 0.03 | 0.03 | 65 | 1015.7 |
| 20260505233323 | 17 | 0 | 4.8 | 11.3 | 0.00 | 0.03 | 0.03 | 64 | 1015.7 |
| 20260505232823 | 17 | 0 | 3.2 | 11.3 | 0.00 | 0.03 | 0.03 | 63 | 1015.7 |
| 20260505232601 | 17 | 0 | 3.2 | 11.3 | 0.00 | 0.03 | 0.03 | 64 | 1015.6 |
| 20260505231822 | 17 | 0 | 6.4 | 16.1 | 0.00 | 0.03 | 0.03 | 64 | 1015.7 |
| 20260505231324 | 17 | 0 | 4.8 | 16.1 | 0.00 | 0.03 | 0.03 | 64 | 1015.7 |
| 20260505230822 | 17 | 0 | 4.8 | 16.1 | 0.00 | 0.03 | 0.03 | 63 | 1015.7 |
| 20260505230322 | 17 | 0 | 6.4 | 17.7 | 0.00 | 0.03 | 0.03 | 64 | 1015.6 |
| 20260505230126 | 17 | 0 | 6.4 | 17.7 | 0.00 | 0.03 | 0.03 | 64 | 1015.6 |
| 20260505230120 | 17 | 0 | 3.2 | 17.7 | 0.00 | 0.03 | 0.03 | 64 | 1015.6 |
| 20260505224822 | 18 | 0 | 6.4 | 17.7 | 0.00 | 0.03 | 0.03 | 62 | 1015.6 |
| 20260505224600 | 18 | 0 | 4.8 | 11.3 | 0.00 | 0.03 | 0.03 | 62 | 1015.7 |
| 20260505224059 | 18 | 0 | 4.8 | 11.3 | 0.00 | 0.03 | 0.03 | 62 | 1015.7 |
| 20260505223322 | 18 | 0 | 4.8 | 9.7 | 0.00 | 0.03 | 0.03 | 62 | 1015.7 |
| 20260505222820 | 18 | 0 | 3.2 | 11.3 | 0.00 | 0.03 | 0.03 | 62 | 1015.7 |
| 20260505222321 | 18 | 0 | 3.2 | 11.3 | 0.00 | 0.03 | 0.03 | 62 | 1015.7 |
| 20260505221821 | 18 | 0 | 3.2 | 9.7 | 0.00 | 0.03 | 0.03 | 62 | 1015.8 |
| 20260505221322 | 18 | 0 | 3.2 | 9.7 | 0.00 | 0.03 | 0.03 | 62 | 1015.8 |
| 20260505220821 | 18 | 0 | 4.8 | 11.3 | 0.00 | 0.03 | 0.03 | 62 | 1015.8 |
| 20260505220320 | 17 | 0 | 4.8 | 11.3 | 0.00 | 0.03 | 0.03 | 63 | 1015.8 |
| 20260505215820 | 17 | 0 | 6.4 | 11.3 | 0.00 | 0.03 | 0.03 | 62 | 1015.8 |
| 20260505215321 | 17 | 0 | 3.2 | 14.5 | 0.00 | 0.03 | 0.03 | 63 | 1015.8 |
| 20260505214820 | 17 | 0 | 4.8 | 14.5 | 0.00 | 0.03 | 0.03 | 63 | 1015.9 |
| 20260505214319 | 17 | 0 | 6.4 | 14.5 | 0.00 | 0.03 | 0.03 | 63 | 1016.0 |
| 20260505213820 | 17 | 0 | 6.4 | 14.5 | 0.00 | 0.03 | 0.03 | 62 | 1016.0 |
| 20260505213320 | 17 | 0 | 6.4 | 14.5 | 0.00 | 0.03 | 0.03 | 63 | 1016.0 |
| 20260505212820 | 17 | 0 | 8.0 | 16.1 | 0.00 | 0.03 | 0.03 | 63 | 1016.1 |
| 20260505212321 | 17 | 0 | 4.8 | 16.1 | 0.00 | 0.03 | 0.03 | 63 | 1016.1 |
| 20260505211833 | 17 | 0 | 3.2 | 14.5 | 0.00 | 0.03 | 0.03 | 62 | 1016.0 |
| 20260505211827 | 17 | 0 | 4.8 | 11.3 | 0.00 | 0.03 | 0.03 | 63 | 1016.1 |
| 20260505211727 | 17 | 0 | 6.4 | 16.1 | 0.00 | 0.03 | 0.03 | 62 | 1016.1 |
| 20260505211628 | 17 | 0 | 4.8 | 16.1 | 0.00 | 0.03 | 0.03 | 63 | 1016.1 |
| 20260505211527 | 17 | 0 | 4.8 | 11.3 | 0.00 | 0.03 | 0.03 | 62 | 1016.2 |
| 20260505205819 | 17 | 0 | 3.2 | 14.5 | 0.00 | 0.03 | 0.03 | 62 | 1016.0 |
| 20260505205318 | 17 | 0 | 6.4 | 14.5 | 0.00 | 0.03 | 0.03 | 62 | 1016.0 |
| 20260505204818 | 17 | 0 | 4.8 | 9.7 | 0.00 | 0.03 | 0.03 | 62 | 1015.9 |
| 20260505204556 | 17 | 0 | 4.8 | 19.3 | 0.00 | 0.03 | 0.03 | 61 | 1015.9 |
| 20260505204058 | 18 | 0 | 4.8 | 19.3 | 0.00 | 0.03 | 0.03 | 62 | 1015.9 |
| 20260505203556 | 18 | 0 | 4.8 | 16.1 | 0.00 | 0.03 | 0.03 | 62 | 1015.9 |
| 20260505202818 | 18 | 0 | 4.8 | 16.1 | 0.00 | 0.03 | 0.03 | 62 | 1015.9 |
| 20260505202556 | 18 | 0 | 3.2 | 11.3 | 0.00 | 0.03 | 0.03 | 62 | 1015.9 |
| 20260505201819 | 18 | 0 | 6.4 | 11.3 | 0.00 | 0.03 | 0.03 | 62 | 1016.0 |
| 20260505201319 | 17 | 0 | 6.4 | 14.5 | 0.00 | 0.03 | 0.03 | 63 | 1016.1 |
| 20260505200817 | 17 | 0 | 4.8 | 14.5 | 0.00 | 0.03 | 0.03 | 63 | 1016.1 |
| 20260505200319 | 17 | 0 | 1.6 | 14.5 | 0.00 | 0.03 | 0.03 | 64 | 1016.1 |
| 20260505195818 | 17 | 0 | 4.8 | 11.3 | 0.00 | 0.03 | 0.03 | 64 | 1016.1 |
| 20260505195316 | 17 | 0 | 4.8 | 11.3 | 0.00 | 0.03 | 0.03 | 64 | 1016.2 |
| 20260505194817 | 17 | 0 | 4.8 | 11.3 | 0.00 | 0.03 | 0.03 | 64 | 1016.2 |
| 20260505194316 | 16 | 0 | 3.2 | 9.7 | 0.00 | 0.03 | 0.03 | 66 | 1016.3 |
| 20260505193818 | 16 | 0 | 3.2 | 11.3 | 0.00 | 0.03 | 0.03 | 68 | 1016.3 |
| 20260505193316 | 16 | 0 | 4.8 | 14.5 | 0.00 | 0.03 | 0.03 | 67 | 1016.3 |
| 20260505192816 | 16 | 0 | 4.8 | 14.5 | 0.00 | 0.03 | 0.03 | 67 | 1016.6 |
| 20260505192316 | 16 | 0 | 3.2 | 8.0 | 0.00 | 0.03 | 0.03 | 66 | 1016.5 |
| 20260505191816 | 16 | 0 | 3.2 | 9.7 | 0.00 | 0.03 | 0.03 | 69 | 1016.5 |
| 20260505191316 | 16 | 0 | 3.2 | 9.7 | 0.00 | 0.03 | 0.03 | 70 | 1016.5 |
| 20260505190816 | 16 | 0 | 4.8 | 8.0 | 0.00 | 0.03 | 0.03 | 70 | 1016.5 |
| 20260505190315 | 15 | 0 | 3.2 | 11.3 | 0.00 | 0.03 | 0.03 | 72 | 1016.3 |
| 20260505185817 | 15 | 0 | 4.8 | 11.3 | 0.00 | 0.03 | 0.03 | 73 | 1016.2 |
| 20260505185315 | 15 | 0 | 4.8 | 11.3 | 0.00 | 0.03 | 0.03 | 73 | 1016.3 |
| 20260505184816 | 15 | 0 | 4.8 | 11.3 | 0.00 | 0.03 | 0.03 | 72 | 1016.2 |
| 20260505184316 | 15 | 0 | 3.2 | 14.5 | 0.00 | 0.03 | 0.03 | 73 | 1016.2 |
| 20260505183812 | 15 | 0 | 3.2 | 14.5 | 0.00 | 0.03 | 0.03 | 73 | 1016.2 |
| 20260505183313 | 15 | 0 | 4.8 | 11.3 | 0.00 | 0.03 | 0.03 | 73 | 1016.3 |
| 20260505182815 | 15 | 0 | 4.8 | 11.3 | 0.00 | 0.03 | 0.03 | 74 | 1016.3 |
| 20260505182315 | 15 | 0 | 3.2 | 11.3 | 0.00 | 0.03 | 0.03 | 74 | 1016.5 |
| 20260505181816 | 15 | 0 | 4.8 | 11.3 | 0.00 | 0.03 | 0.03 | 74 | 1016.5 |
| 20260505181554 | 15 | 0 | 3.2 | 9.7 | 0.00 | 0.03 | 0.03 | 76 | 1016.3 |
| 20260505180815 | 15 | 0 | 1.6 | 6.4 | 0.00 | 0.03 | 0.03 | 76 | 1016.2 |
| 20260505180314 | 14 | 0 | 3.2 | 8.0 | 0.00 | 0.03 | 0.03 | 76 | 1016.2 |
| 20260505175815 | 14 | 0 | 4.8 | 9.7 | 0.00 | 0.03 | 0.03 | 76 | 1016.2 |
| 20260505175313 | 14 | 0 | 4.8 | 9.7 | 0.00 | 0.03 | 0.03 | 76 | 1016.2 |
| 20260505174812 | 14 | 0 | 3.2 | 11.3 | 0.00 | 0.03 | 0.03 | 77 | 1016.1 |
| 20260505174312 | 14 | 0 | 1.6 | 11.3 | 0.00 | 0.03 | 0.03 | 77 | 1016.0 |
| 20260505173813 | 14 | 0 | 3.2 | 9.7 | 0.00 | 0.03 | 0.03 | 78 | 1015.9 |
| 20260505173313 | 14 | 0 | 3.2 | 6.4 | 0.00 | 0.03 | 0.03 | 79 | 1015.9 |
| 20260505173052 | 13 | 0 | 1.6 | 8.0 | 0.00 | 0.03 | 0.03 | 80 | 1015.9 |
| 20260505172312 | 13 | 0 | 3.2 | 8.0 | 0.00 | 0.03 | 0.03 | 80 | 1016.0 |
| 20260505171812 | 13 | 0 | 1.6 | 9.7 | 0.00 | 0.03 | 0.03 | 80 | 1015.9 |
| 20260505171312 | 13 | 0 | 3.2 | 9.7 | 0.00 | 0.03 | 0.03 | 80 | 1015.9 |
| 20260505170812 | 13 | 0 | 3.2 | 8.0 | 0.00 | 0.03 | 0.03 | 80 | 1015.8 |
| 20260505170312 | 13 | 0 | 3.2 | 6.4 | 0.00 | 0.03 | 0.03 | 80 | 1015.9 |
| 20260505165813 | 13 | 0 | 0.0 | 3.2 | 0.00 | 0.03 | 0.03 | 81 | 1015.8 |
| 20260505165312 | 13 | 0 | 0.0 | 0.0 | 0.00 | 0.03 | 0.03 | 81 | 1015.8 |
| 20260505164812 | 13 | 0 | 0.0 | 1.6 | 0.00 | 0.03 | 0.03 | 81 | 1015.8 |
| 20260505164313 | 13 | 0 | 0.0 | 1.6 | 0.00 | 0.03 | 0.03 | 81 | 1015.8 |
| 20260505163813 | 13 | 0 | 0.0 | 1.6 | 0.00 | 0.03 | 0.03 | 82 | 1015.7 |
| 20260505163312 | 13 | 0 | 0.0 | 1.6 | 0.00 | 0.03 | 0.03 | 82 | 1015.8 |
| 20260505162812 | 13 | 0 | 0.0 | 3.2 | 0.00 | 0.03 | 0.03 | 82 | 1015.7 |
| 20260505162312 | 13 | 0 | 1.6 | 3.2 | 0.00 | 0.03 | 0.03 | 82 | 1015.7 |
| 20260505161813 | 13 | 0 | 0.0 | 1.6 | 0.00 | 0.03 | 0.03 | 82 | 1015.6 |
| 20260505161312 | 13 | 0 | 0.0 | 1.6 | 0.00 | 0.03 | 0.03 | 83 | 1015.6 |
| 20260505160811 | 13 | 0 | 0.0 | 1.6 | 0.00 | 0.03 | 0.03 | 83 | 1015.6 |
| 20260505160552 | 13 | 0 | 0.0 | 1.6 | 0.00 | 0.03 | 0.03 | 83 | 1015.6 |
| 20260505153309 | 12 | 0 | 1.6 | 3.2 | 0.00 | 0.03 | 0.03 | 84 | 1015.4 |
| 20260505152809 | 12 | 0 | 0.0 | 0.0 | 0.00 | 0.03 | 0.03 | 84 | 1015.3 |
| 20260505152309 | 12 | 0 | 0.0 | 0.0 | 0.00 | 0.03 | 0.03 | 85 | 1015.3 |
| 20260505151809 | 12 | 0 | 0.0 | 0.0 | 0.00 | 0.03 | 0.03 | 85 | 1015.3 |
| 20260505151309 | 12 | 0 | 0.0 | 0.0 | 0.00 | 0.03 | 0.03 | 85 | 1015.3 |
| 20260505150808 | 12 | 0 | 0.0 | 0.0 | 0.00 | 0.03 | 0.03 | 85 | 1015.2 |
| 20260505150308 | 12 | 0 | 0.0 | 1.6 | 0.00 | 0.03 | 0.03 | 85 | 1015.3 |
| 20260505140309 | 11 | 0 | 0.0 | 3.2 | 0.00 | 0.03 | 0.03 | 86 | 1015.0 |
| 20260505130306 | 11 | 0 | 0.0 | 4.8 | 0.00 | 0.03 | 0.03 | 85 | 1014.6 |
| 20260505124807 | 11 | 0 | 1.6 | 3.2 | 0.00 | 0.03 | 0.03 | 85 | 1015.0 |
| 20260505124306 | 11 | 0 | 1.6 | 3.2 | 0.03 | 0.03 | 0.03 | 85 | 1015.0 |
| 20260505123807 | 11 | 0 | 1.6 | 3.2 | 0.03 | 0.03 | 0.03 | 85 | 1014.9 |
| 20260505123306 | 11 | 0 | 0.0 | 1.6 | 0.03 | 0.03 | 0.03 | 85 | 1015.0 |
| 20260505123044 | 11 | 0 | 0.0 | 0.0 | 0.03 | 0.03 | 0.03 | 84 | 1015.0 |
| 20260505122306 | 11 | 0 | 0.0 | 1.6 | 0.03 | 0.03 | 0.03 | 84 | 1014.8 |
| 20260505121806 | 11 | 0 | 0.0 | 3.2 | 0.03 | 0.03 | 0.03 | 85 | 1014.8 |
| 20260505121546 | 11 | 0 | 0.0 | 3.2 | 0.03 | 0.03 | 0.03 | 84 | 1014.7 |
| 20260505120805 | 11 | 0 | 1.6 | 3.2 | 0.03 | 0.03 | 0.03 | 84 | 1014.6 |
| 20260505120304 | 11 | 0 | 1.6 | 3.2 | 0.03 | 0.03 | 0.03 | 84 | 1014.6 |
| 20260505120108 | 11 | 0 | 0.0 | 1.6 | 0.03 | 0.00 | 0.03 | 83 | 1014.9 |
| 20260505115047 | 11 | 0 | 0.0 | 4.8 | 0.03 | 0.00 | 0.03 | 84 | 1014.9 |
| 20260505114542 | 11 | 0 | 0.0 | 4.8 | 0.00 | 0.00 | 0.00 | 84 | 1014.9 |
| 20260505113803 | 11 | 0 | 3.2 | 4.8 | 0.00 | 0.00 | 0.00 | 83 | 1014.9 |
| 20260505113304 | 11 | 0 | 3.2 | 3.2 | 0.00 | 0.00 | 0.00 | 83 | 1014.9 |
| 20260505112803 | 11 | 0 | 1.6 | 3.2 | 0.00 | 0.00 | 0.00 | 83 | 1015.0 |
| 20260505112328 | 11 | 0 | 0.0 | 1.6 | 0.00 | 0.00 | 0.00 | 83 | 1015.1 |
| 20260505112318 | 11 | 0 | 0.0 | 1.6 | 0.00 | 0.00 | 0.00 | 83 | 1015.0 |
| 20260505111303 | 11 | 0 | 0.0 | 1.6 | 0.00 | 0.00 | 0.00 | 83 | 1015.0 |
| 20260505110803 | 11 | 0 | 1.6 | 1.6 | 0.00 | 0.00 | 0.00 | 82 | 1014.9 |
| 20260505110303 | 11 | 0 | 0.0 | 3.2 | 0.00 | 0.00 | 0.00 | 83 | 1015.0 |
| 20260505102042 | 11 | 0 | 0.0 | 3.2 | 0.00 | 0.00 | 0.00 | 79 | 1014.9 |
| 20260505101303 | 11 | 0 | 0.0 | 3.2 | 0.00 | 0.00 | 0.00 | 78 | 1014.9 |
| 20260505100803 | 12 | 0 | 1.6 | 3.2 | 0.00 | 0.00 | 0.00 | 77 | 1015.0 |
| 20260505100303 | 12 | 0 | 0.0 | 1.6 | 0.00 | 0.00 | 0.00 | 76 | 1014.9 |
| 20260505095815 | 12 | 0 | 0.0 | 6.4 | 0.00 | 0.00 | 0.00 | 75 | 1015.0 |
| 20260505095305 | 12 | 0 | 1.6 | 6.4 | 0.00 | 0.00 | 0.00 | 75 | 1015.0 |
| 20260505095045 | 12 | 0 | 0.0 | 4.8 | 0.00 | 0.00 | 0.00 | 75 | 1015.0 |
| 20260505094304 | 11 | 0 | 1.6 | 4.8 | 0.00 | 0.00 | 0.00 | 75 | 1015.0 |
| 20260505093803 | 11 | 0 | 1.6 | 4.8 | 0.00 | 0.00 | 0.00 | 75 | 1015.3 |
| 20260505093325 | 12 | 0 | 0.0 | 0.0 | 0.00 | 0.00 | 0.00 | 75 | 1015.2 |
| 20260505093318 | 11 | 0 | 1.6 | 3.2 | 0.00 | 0.00 | 0.00 | 75 | 1015.3 |
| 20260505092304 | 12 | 0 | 0.0 | 3.2 | 0.00 | 0.00 | 0.00 | 75 | 1015.2 |
| 20260505091802 | 11 | 0 | 0.0 | 3.2 | 0.00 | 0.00 | 0.00 | 75 | 1015.3 |
| 20260505091303 | 12 | 0 | 0.0 | 3.2 | 0.00 | 0.00 | 0.00 | 75 | 1015.4 |
| 20260505091040 | 11 | 0 | 0.0 | 3.2 | 0.00 | 0.00 | 0.00 | 75 | 1015.4 |
| 20260505090324 | 12 | 0 | 0.0 | 1.6 | 0.00 | 0.00 | 0.00 | 74 | 1015.6 |
| 20260505090316 | 12 | 0 | 1.6 | 1.6 | 0.00 | 0.00 | 0.00 | 74 | 1015.5 |
| 20260505085304 | 12 | 0 | 0.0 | 1.6 | 0.00 | 0.00 | 0.00 | 74 | 1015.5 |
| 20260505084800 | 12 | 0 | 0.0 | 1.6 | 0.00 | 0.00 | 0.00 | 74 | 1015.6 |
| 20260505084300 | 12 | 0 | 0.0 | 1.6 | 0.00 | 0.00 | 0.00 | 74 | 1015.6 |
| 20260505083801 | 11 | 0 | 0.0 | 1.6 | 0.00 | 0.00 | 0.00 | 74 | 1015.5 |
| 20260505083300 | 12 | 0 | 0.0 | 6.4 | 0.00 | 0.00 | 0.00 | 74 | 1015.6 |
| 20260505082801 | 12 | 0 | 1.6 | 6.4 | 0.00 | 0.00 | 0.00 | 74 | 1015.7 |
| 20260505082300 | 12 | 0 | 3.2 | 4.8 | 0.00 | 0.00 | 0.00 | 74 | 1015.6 |
| 20260505081800 | 12 | 0 | 1.6 | 4.8 | 0.00 | 0.00 | 0.00 | 74 | 1015.8 |
| 20260505081300 | 12 | 0 | 1.6 | 4.8 | 0.00 | 0.00 | 0.00 | 73 | 1015.7 |
| 20260505080800 | 12 | 0 | 1.6 | 4.8 | 0.00 | 0.00 | 0.00 | 73 | 1015.8 |
| 20260505080259 | 12 | 0 | 1.6 | 6.4 | 0.00 | 0.00 | 0.00 | 73 | 1015.9 |
| 20260505075759 | 12 | 0 | 1.6 | 6.4 | 0.00 | 0.00 | 0.00 | 73 | 1015.9 |
| 20260505075538 | 12 | 0 | 3.2 | 11.3 | 0.00 | 0.00 | 0.00 | 73 | 1015.9 |
| 20260505074757 | 12 | 0 | 3.2 | 11.3 | 0.00 | 0.00 | 0.00 | 73 | 1016.0 |
| 20260505074537 | 12 | 0 | 1.6 | 3.2 | 0.00 | 0.00 | 0.00 | 73 | 1016.0 |
| 20260505073757 | 12 | 0 | 0.0 | 4.8 | 0.00 | 0.00 | 0.00 | 73 | 1016.1 |
| 20260505073257 | 12 | 0 | 1.6 | 4.8 | 0.00 | 0.00 | 0.00 | 73 | 1016.0 |
| 20260505072757 | 12 | 0 | 1.6 | 4.8 | 0.00 | 0.00 | 0.00 | 73 | 1016.1 |
| 20260505072534 | 12 | 0 | 1.6 | 4.8 | 0.00 | 0.00 | 0.00 | 72 | 1016.0 |
| 20260505071757 | 12 | 0 | 3.2 | 6.4 | 0.00 | 0.00 | 0.00 | 72 | 1015.9 |
| 20260505071256 | 12 | 0 | 1.6 | 6.4 | 0.00 | 0.00 | 0.00 | 72 | 1015.9 |
| 20260505070757 | 12 | 0 | 0.0 | 4.8 | 0.00 | 0.00 | 0.00 | 72 | 1015.8 |
| 20260505070539 | 12 | 0 | 1.6 | 4.8 | 0.00 | 0.00 | 0.00 | 72 | 1015.7 |
| 20260505065757 | 12 | 0 | 1.6 | 4.8 | 0.00 | 0.00 | 0.00 | 73 | 1015.7 |
| 20260505065256 | 12 | 0 | 3.2 | 6.4 | 0.00 | 0.00 | 0.00 | 73 | 1015.7 |
| 20260505064757 | 12 | 0 | 0.0 | 6.4 | 0.00 | 0.00 | 0.00 | 72 | 1015.7 |
| 20260505064538 | 12 | 0 | 3.2 | 4.8 | 0.00 | 0.00 | 0.00 | 73 | 1015.7 |
| 20260505063756 | 12 | 0 | 0.0 | 4.8 | 0.00 | 0.00 | 0.00 | 73 | 1015.6 |
| 20260505063256 | 12 | 0 | 1.6 | 4.8 | 0.00 | 0.00 | 0.00 | 73 | 1015.6 |
| 20260505062756 | 12 | 0 | 1.6 | 6.4 | 0.00 | 0.00 | 0.00 | 72 | 1015.6 |
| 20260505062255 | 12 | 0 | 4.8 | 8.0 | 0.00 | 0.00 | 0.00 | 72 | 1015.4 |
| 20260505061755 | 12 | 0 | 3.2 | 8.0 | 0.00 | 0.00 | 0.00 | 72 | 1015.4 |
| 20260505061255 | 12 | 0 | 1.6 | 9.7 | 0.00 | 0.00 | 0.00 | 73 | 1015.4 |
| 20260505060755 | 12 | 0 | 3.2 | 9.7 | 0.00 | 0.00 | 0.00 | 73 | 1015.4 |
| 20260505060256 | 12 | 0 | 1.6 | 6.4 | 0.00 | 0.00 | 0.00 | 74 | 1015.4 |
| 20260505055756 | 12 | 0 | 1.6 | 6.4 | 0.00 | 0.00 | 0.00 | 74 | 1015.4 |
| 20260505055255 | 12 | 0 | 1.6 | 4.8 | 0.00 | 0.00 | 0.00 | 74 | 1015.4 |
| 20260505054821 | 12 | 0 | 1.6 | 4.8 | 0.00 | 0.00 | 0.00 | 74 | 1015.4 |
| 20260505054811 | 12 | 0 | 3.2 | 4.8 | 0.00 | 0.00 | 0.00 | 74 | 1015.4 |
| 20260505053754 | 12 | 0 | 1.6 | 4.8 | 0.00 | 0.00 | 0.00 | 74 | 1015.6 |
| 20260505053255 | 12 | 0 | 3.2 | 6.4 | 0.00 | 0.00 | 0.00 | 74 | 1015.7 |
| 20260505053037 | 12 | 0 | 3.2 | 9.7 | 0.00 | 0.00 | 0.00 | 74 | 1015.7 |
| 20260505052255 | 13 | 0 | 3.2 | 9.7 | 0.00 | 0.00 | 0.00 | 74 | 1015.7 |
| 20260505051754 | 13 | 0 | 1.6 | 11.3 | 0.00 | 0.00 | 0.00 | 75 | 1015.7 |
| 20260505051254 | 13 | 0 | 1.6 | 16.1 | 0.00 | 0.00 | 0.00 | 75 | 1015.8 |
| 20260505051033 | 13 | 0 | 6.4 | 16.1 | 0.00 | 0.00 | 0.00 | 75 | 1015.9 |
| 20260505050254 | 13 | 0 | 6.4 | 16.1 | 0.00 | 0.00 | 0.00 | 75 | 1016.1 |
| 20260505041254 | 13 | 0 | 0.0 | 6.4 | 0.00 | 0.00 | 0.00 | 74 | 1015.4 |
| 20260505041032 | 13 | 0 | 0.0 | 6.4 | 0.00 | 0.00 | 0.00 | 74 | 1015.4 |
| 20260505040252 | 13 | 0 | 0.0 | 8.0 | 0.00 | 0.00 | 0.00 | 74 | 1015.4 |
| 20260505035750 | 13 | 0 | 3.2 | 8.0 | 0.00 | 0.00 | 0.00 | 74 | 1015.3 |
| 20260505035527 | 13 | 0 | 3.2 | 8.0 | 0.00 | 0.00 | 0.00 | 74 | 1015.4 |
| 20260505034741 | 13 | 0 | 3.2 | 8.0 | 0.00 | 0.00 | 0.00 | 74 | 1015.2 |
| 20260505034241 | 13 | 0 | 3.2 | 6.4 | 0.00 | 0.00 | 0.00 | 73 | 1015.2 |
| 20260505033742 | 13 | 0 | 1.6 | 8.0 | 0.00 | 0.00 | 0.00 | 73 | 1015.1 |
| 20260505033241 | 13 | 0 | 3.2 | 8.0 | 0.00 | 0.00 | 0.00 | 73 | 1015.0 |
| 20260505032737 | 13 | 0 | 3.2 | 8.0 | 0.00 | 0.00 | 0.00 | 72 | 1014.8 |
| 20260505032238 | 13 | 0 | 4.8 | 8.0 | 0.00 | 0.00 | 0.00 | 72 | 1014.7 |
| 20260505031738 | 13 | 0 | 3.2 | 8.0 | 0.00 | 0.00 | 0.00 | 71 | 1014.8 |
| 20260505031238 | 13 | 0 | 3.2 | 6.4 | 0.00 | 0.00 | 0.00 | 71 | 1014.8 |
| 20260505030736 | 14 | 0 | 0.0 | 4.8 | 0.00 | 0.00 | 0.00 | 70 | 1014.8 |
| 20260505030236 | 14 | 0 | 1.6 | 6.4 | 0.00 | 0.00 | 0.00 | 70 | 1014.8 |
| 20260505030016 | 14 | 0 | 3.2 | 8.0 | 0.00 | 0.00 | 0.00 | 69 | 1014.7 |
| 20260505025234 | 14 | 0 | 3.2 | 8.0 | 0.00 | 0.00 | 0.00 | 68 | 1014.8 |
| 20260505025016 | 14 | 0 | 1.6 | 8.0 | 0.00 | 0.00 | 0.00 | 68 | 1014.7 |
| 20260505024234 | 14 | 0 | 4.8 | 9.7 | 0.00 | 0.00 | 0.00 | 68 | 1014.7 |
| 20260505023733 | 14 | 0 | 3.2 | 9.7 | 0.00 | 0.00 | 0.00 | 67 | 1014.8 |
| 20260505023232 | 15 | 0 | 4.8 | 9.7 | 0.00 | 0.00 | 0.00 | 66 | 1014.7 |
| 20260505023011 | 15 | 0 | 4.8 | 9.7 | 0.00 | 0.00 | 0.00 | 65 | 1014.7 |
| 20260505022230 | 15 | 0 | 3.2 | 8.0 | 0.00 | 0.00 | 0.00 | 65 | 1014.6 |